Dewpoint
-9 -8 -7 -8 -9 -14 -9 -8 -7 -8 -8 -8 -8 -7 -8 -7 -7 -9 -8 -6 -6 -5 -5 -5 -4 -3 -2 -0 1 3 4 5 6 9 9 9 7 9 10 9 9 10 10
-9 -8 -7 -8 -9 -14 -10 -7 -7 -8 -8 -8 -8 -9 -8 -7 -7 -8 -7 -7 -6 -5 -5 -5 -5 -4 -3 -2 0 2 3 4 5 8 8 8 8 9 10 10 10 9 10
-9 -8 -7 -8 -9 -13 -10 -8 -8 -8 -9 -9 -9 -8 -9 -7 -8 -7 -7 -7 -7 -6 -6 -5 -5 -4 -4 -3 -1 1 3 4 6 7 8 8 7 8 11 12 10 11 9
-10 -8 -8 -8 -9 -14 -10 -8 -9 -9 -9 -9 -9 -8 -9 -8 -8 -8 -7 -7 -6 -6 -5 -6 -5 -5 -4 -4 -2 0 2 4 5 7 8 8 8 7 8 8 12 11 11
-11 -9 -8 -8 -9 -14 -11 -9 -9 -9 -9 -10 -10 -9 -9 -8 -8 -8 -7 -7 -7 -7 -6 -6 -5 -5 -4 -3 -3 -1 1 3 5 6 8 8 8 9 8 8 10 11 10
-11 -10 -8 -8 -9 -14 -12 -9 -10 -11 -10 -10 -10 -10 -9 -8 -8 -8 -8 -7 -7 -7 -7 -7 -6 -5 -5 -4 -3 -2 0 2 4 5 6 8 7 7 7 7 7 9 11
-13 -10 -9 -8 -9 -14 -12 -11 -10 -11 -11 -10 -10 -10 -9 -8 -8 -8 -8 -7 -7 -7 -7 -7 -7 -6 -5 -5 -3 -2 -1 0 2 4 5 7 7 8 8 7 6 7 9
-15 -10 -8 -8 -10 -14 -12 -11 -10 -10 -11 -11 -10 -10 -9 -9 -8 -8 -9 -8 -8 -7 -8 -8 -7 -7 -6 -5 -4 -3 -1 -0 1 3 4 6 7 7 8 8 7 6 7
-15 -10 -9 -9 -11 -14 -12 -11 -10 -11 -11 -11 -11 -10 -10 -9 -9 -8 -9 -9 -8 -8 -7 -7 -7 -7 -6 -5 -5 -4 -3 -1 -0 1 4 5 6 6 7 7 7 5 7
-15 -11 -9 -11 -16 -15 -11 -11 -11 -11 -12 -12 -11 -11 -11 -10 -9 -9 -8 -9 -9 -8 -8 -8 -7 -7 -6 -6 -5 -5 -4 -3 -1 1 3 4 4 6 7 8 7 6 7
-15 -14 -14 -18 -19 -17 -13 -11 -11 -12 -13 -13 -12 -11 -11 -11 -10 -10 -9 -8 -8 -8 -8 -8 -8 -7 -7 -7 -6 -6 -5 -3 -2 -1 0 2 3 5 5 6 7 7 8
-16 -18 -18 -16 -17 -16 -16 -14 -13 -13 -13 -14 -16 -14 -12 -11 -11 -10 -10 -9 -9 -9 -8 -8 -8 -8 -8 -7 -7 -6 -6 -5 -4 -3 -2 -1 1 3 4 5 6 6 7
-18 -21 -19 -15 -14 -14 -15 -17 -15 -14 -13 -15 -17 -16 -14 -14 -11 -11 -11 -11 -10 -10 -10 -10 -9 -9 -9 -8 -8 -7 -7 -6 -5 -5 -4 -3 -3 -1 1 3 4 5 5
-21 -20 -15 -14 -13 -12 -12 -13 -14 -15 -13 -15 -19 -17 -14 -15 -15 -12 -11 -11 -11 -11 -11 -10 -10 -10 -9 -9 -8 -8 -7 -7 -6 -6 -5 -4 -4 -2 -1 0 2 4 4
-21 -18 -15 -12 -12 -11 -11 -11 -12 -12 -13 -15 -15 -14 -14 -14 -13 -19 -16 -12 -11 -11 -11 -11 -11 -10 -10 -9 -9 -8 -8 -8 -7 -7 -6 -6 -5 -4 -4 -2 -1 0 2
-20 -18 -16 -14 -13 -12 -11 -11 -12 -13 -16 -16 -15 -16 -16 -18 -25 -29 -29 -22 -18 -15 -15 -13 -12 -11 -11 -10 -10 -9 -9 -8 -8 -8 -7 -7 -6 -6 -5 -4 -4 -3 -2
-20 -19 -18 -16 -17 -18 -14 -13 -14 -16 -18 -18 -19 -20 -22 -26 -27 -29 -29 -28 -29 -29 -27 -25 -19 -15 -14 -13 -12 -10 -9 -9 -8 -8 -8 -7 -7 -7 -6 -6 -5 -5 -4
-19 -21 -21 -20 -20 -22 -19 -17 -16 -19 -25 -24 -22 -26 -26 -27 -27 -28 -28 -28 -28 -28 -27 -27 -26 -24 -21 -19 -17 -14 -11 -10 -9 -9 -8 -8 -8 -7 -7 -7 -6 -6 -5
-18 -21 -23 -22 -22 -23 -23 -23 -22 -23 -26 -26 -26 -26 -26 -26 -27 -27 -27 -27 -27 -27 -27 -27 -27 -27 -26 -26 -25 -23 -20 -15 -11 -10 -9 -8 -8 -8 -8 -7 -7 -7 -7
-17 -21 -23 -23 -22 -24 -25 -26 -27 -27 -26 -25 -24 -24 -25 -25 -26 -26 -27 -27 -28 -27 -28 -28 -28 -28 -28 -28 -27 -27 -27 -26 -22 -16 -11 -10 -9 -8 -8 -8 -7 -7 -7
-16 -21 -23 -23 -22 -22 -24 -27 -28 -26 -24 -23 -24 -24 -25 -25 -26 -27 -27 -28 -28 -28 -28 -28 -28 -28 -29 -29 -29 -29 -28 -28 -28 -26 -22 -15 -11 -9 -8 -8 -8 -8 -7
-12 -17 -21 -23 -22 -22 -23 -26 -27 -24 -23 -23 -24 -24 -25 -26 -26 -27 -27 -28 -28 -28 -28 -28 -28 -28 -28 -28 -28 -29 -28 -28 -28 -28 -28 -25 -20 -13 -10 -9 -8 -8 -8
-10 -11 -17 -23 -22 -21 -22 -25 -25 -23 -22 -23 -23 -24 -24 -25 -26 -27 -27 -28 -28 -28 -28 -28 -28 -28 -28 -28 -27 -27 -28 -28 -27 -27 -27 -27 -27 -23 -16 -11 -9 -9 -8
-9 -9 -11 -21 -22 -20 -21 -24 -25 -23 -22 -22 -23 -23 -24 -24 -25 -25 -26 -26 -27 -27 -28 -28 -28 -28 -28 -28 -27 -27 -26 -27 -27 -27 -26 -26 -26 -26 -25 -20 -12 -10 -9
-9 -8 -9 -16 -22 -20 -20 -23 -24 -23 -22 -22 -22 -23 -23 -23 -23 -23 -24 -24 -25 -25 -26 -27 -28 -28 -28 -28 -27 -27 -26 -26 -26 -26 -26 -26 -26 -26 -26 -25 -22 -14 -11
-8 -8 -8 -11 -22 -20 -20 -21 -24 -24 -22 -22 -22 -22 -22 -22 -22 -22 -22 -22 -22 -23 -24 -25 -26 -27 -27 -28 -28 -27 -26 -26 -26 -26 -25 -25 -25 -25 -25 -25 -24 -23 -20
Wind_Speed
25 26 27 31 34 36 28 22 22 24 24 24 23 23 24 21 24 31 27 22 20 19 21 16 18 17 12 12 16 19 18 20 22 22 26 23 31 29 30 36 39 44 42
22 24 25 30 34 36 27 24 25 25 24 23 23 24 24 22 28 30 27 22 19 21 19 19 19 19 15 12 14 16 19 17 22 20 26 25 31 31 31 33 35 41 45
20 22 24 29 34 35 29 25 24 23 24 24 23 24 26 21 27 29 26 22 20 19 19 21 20 20 20 16 12 13 17 19 20 18 28 27 30 27 24 35 41 40 41
21 21 23 28 33 33 27 23 24 23 24 24 23 23 26 23 28 30 27 20 20 18 20 18 19 20 21 21 16 11 14 17 20 19 25 33 30 35 31 23 28 42 41
20 20 22 26 31 31 27 23 24 24 23 23 24 23 23 26 28 29 25 22 20 20 22 21 20 19 18 18 17 12 12 14 20 15 28 29 33 33 33 33 16 20 38
19 19 20 25 30 29 25 24 25 26 25 23 24 24 24 25 27 27 24 22 22 22 22 23 22 22 21 20 17 10 10 12 13 19 15 20 29 30 32 30 16 17 24
20 18 21 24 29 27 23 24 25 27 25 23 24 24 23 23 27 27 25 23 22 22 21 23 26 25 25 23 20 13 5 9 16 11 15 19 18 26 32 34 27 22 23
20 19 21 24 28 25 21 23 23 24 26 24 24 24 23 23 26 26 26 23 22 21 23 23 23 26 26 25 21 18 10 4 13 14 14 18 15 21 27 29 34 24 23
19 20 21 25 26 24 21 21 21 22 24 24 24 24 23 23 25 26 27 27 25 24 22 22 23 24 24 23 22 20 17 10 4 9 15 17 20 21 28 28 29 27 29
19 20 21 24 24 20 17 19 19 20 22 24 23 23 23 24 24 23 25 27 27 26 24 23 22 23 22 22 22 22 21 21 14 2 8 19 19 22 18 28 31 32 31
19 19 22 22 20 18 17 18 18 19 21 24 23 24 25 27 24 23 23 24 26 25 25 25 24 23 22 21 21 21 19 16 16 13 5 1 10 16 16 18 21 29 32
18 18 19 19 19 19 19 18 17 20 23 24 25 25 27 27 26 25 24 22 22 22 23 22 21 21 22 22 22 21 18 16 18 18 15 12 5 6 12 17 18 21 18
17 16 14 15 18 20 21 20 20 22 24 26 27 26 26 27 26 26 24 23 22 22 20 19 17 19 21 23 25 24 23 24 23 22 21 20 18 11 4 8 15 24 23
15 13 12 13 16 19 21 23 23 24 25 26 26 25 25 27 27 27 26 24 23 21 21 20 22 23 24 24 25 28 28 28 27 26 22 20 18 16 12 5 4 11 17
12 11 11 13 15 17 19 21 21 22 22 22 22 22 24 26 25 23 23 23 22 21 22 23 26 29 31 30 29 28 28 28 28 27 25 23 20 19 20 16 12 6 2
10 9 11 13 15 16 17 17 19 21 20 18 19 19 19 20 21 21 21 20 19 19 23 27 28 30 32 33 32 30 28 28 28 27 26 25 25 24 21 19 16 15 12
8 9 10 11 14 17 17 17 19 20 19 19 19 19 20 21 21 21 21 19 19 19 24 27 27 28 29 30 30 30 29 27 25 25 26 26 24 23 23 22 19 17 15
7 8 9 11 14 16 16 16 17 20 21 20 19 20 20 21 20 21 20 18 20 23 25 26 26 26 25 27 27 27 27 25 25 24 24 24 23 23 24 23 22 20 17
5 7 7 10 13 14 15 16 17 18 20 20 19 20 21 21 20 20 21 23 25 25 25 25 25 25 24 25 24 24 24 24 24 24 23 23 22 21 21 21 20 19 18
4 6 7 9 11 13 14 15 16 17 18 19 21 22 21 21 22 24 24 24 24 24 24 24 25 24 24 25 24 24 23 23 23 23 23 22 20 19 20 19 19 20 19
2 4 6 8 10 11 12 13 14 15 17 18 19 20 21 21 22 23 23 24 24 23 23 23 24 24 24 24 24 24 24 24 23 23 23 22 21 19 17 17 17 17 17
2 3 5 6 8 9 11 11 12 13 15 16 17 18 19 19 20 21 22 22 23 23 23 23 23 23 24 25 25 24 24 25 25 25 23 22 21 20 18 17 17 17 17
3 3 5 5 6 8 9 10 10 11 13 15 16 16 17 18 19 20 20 21 22 22 22 22 22 22 22 23 23 24 25 25 26 26 26 24 23 21 20 18 17 16 16
4 4 6 6 6 7 7 8 9 10 11 12 14 15 16 17 17 18 19 19 19 20 21 21 22 22 22 22 22 23 23 24 24 24 24 24 23 22 20 18 17 15 15
5 5 7 8 7 7 7 7 7 8 9 10 11 13 14 15 15 16 17 18 19 20 20 21 22 21 22 22 22 21 22 22 23 23 22 22 22 21 20 19 18 16 15
7 7 8 9 8 7 7 7 6 6 8 9 10 11 12 13 14 15 16 17 18 19 20 21 21 22 22 21 21 22 21 22 22 22 22 22 22 21 20 20 19 18 17
Wind_Direction
1 2 1 1 0 360 -0 7 6 3 0 360 1 2 4 6 351 357 6 8 12 10 2 0 352 347 323 284 261 244 238 241 256 247 227 220 223 232 235 239 238 239 235
358 359 357 359 0 2 3 9 9 2 1 0 2 4 5 359 354 359 5 11 10 6 359 4 359 355 347 318 268 266 246 241 247 237 239 232 226 229 231 241 243 240 238
355 356 354 359 1 3 4 10 5 357 0 3 4 4 6 356 353 6 9 12 10 6 6 8 3 2 357 346 314 279 255 248 238 228 240 236 231 229 224 224 243 244 239
350 355 354 360 1 3 6 8 3 2 3 4 4 4 4 6 11 8 9 12 11 9 9 11 8 6 359 354 339 291 272 253 249 226 229 239 237 231 239 255 215 229 235
354 357 357 358 1 3 8 6 5 5 6 5 7 9 6 12 13 9 10 15 12 9 12 11 11 6 3 2 344 309 276 257 248 245 232 236 246 244 244 249 229 212 236
355 358 356 358 0 3 6 7 9 9 9 10 13 13 10 14 13 14 15 18 20 16 12 9 10 6 8 6 0 330 278 267 253 239 229 225 245 244 243 242 266 221 225
354 359 356 359 360 3 3 8 12 14 15 20 18 18 16 17 17 16 18 23 20 23 16 12 8 5 8 9 7 1 296 248 255 255 236 215 220 240 247 235 249 262 245
356 357 355 358 358 1 4 10 14 16 19 21 21 20 19 21 21 16 19 24 27 26 24 19 10 7 8 7 10 18 10 290 250 243 249 231 215 226 228 242 239 261 260
357 353 355 354 357 358 5 10 15 17 22 25 24 21 23 25 24 19 18 23 26 27 24 23 16 14 10 10 12 21 24 26 304 253 236 244 236 226 235 231 231 247 253
356 352 351 352 356 1 6 12 15 18 24 26 29 26 27 29 27 21 18 17 20 23 23 23 21 18 14 15 17 21 25 22 20 301 250 240 239 236 216 226 228 233 239
354 348 349 358 5 11 13 15 8 11 24 24 28 27 30 30 29 25 21 17 15 16 20 21 21 19 17 21 25 28 27 23 31 39 52 193 232 236 240 228 211 220 214
351 349 356 10 20 23 19 17 12 11 18 19 22 24 27 26 25 30 27 23 17 16 20 20 21 23 24 26 32 33 35 41 43 42 43 42 37 238 239 238 237 233 212
350 354 5 13 24 25 25 21 17 16 13 15 15 18 20 19 21 26 29 24 22 22 24 24 27 31 33 36 38 37 38 42 46 46 41 36 35 27 336 258 241 247 241
353 3 17 20 21 21 26 26 19 18 11 9 13 14 15 15 16 17 17 21 23 25 30 33 35 41 42 38 38 39 41 41 41 45 42 38 36 37 33 23 282 238 244
359 8 17 21 21 22 19 21 21 18 10 7 11 12 10 13 8 11 13 15 19 22 29 33 35 34 36 37 36 36 36 36 38 37 39 41 40 40 40 41 42 49 203
3 10 19 21 16 15 13 15 16 15 16 19 16 14 15 15 13 13 12 16 19 23 31 34 35 35 32 31 32 33 32 33 33 34 34 36 36 40 38 38 42 44 42
2 10 16 14 12 10 11 8 9 15 17 18 18 19 21 17 17 16 19 18 19 23 33 33 32 32 32 31 28 29 30 31 30 31 31 31 32 37 35 34 32 29 32
359 7 15 11 8 7 8 6 7 10 14 22 22 20 21 19 15 16 19 19 27 31 31 30 29 28 29 29 27 27 28 26 27 28 31 31 30 30 31 31 28 25 19
346 7 13 10 5 5 4 7 9 11 14 17 22 24 23 19 17 19 20 23 25 27 28 27 25 25 25 26 25 25 25 26 25 25 26 27 27 27 32 30 28 26 20
327 359 8 8 2 360 4 8 10 13 16 17 17 19 19 15 17 21 22 23 24 24 22 22 21 20 21 21 21 21 22 21 23 24 25 24 24 24 25 26 24 22 20
312 359 359 3 356 357 2 6 9 13 13 15 16 15 14 15 19 18 19 20 19 19 18 16 15 16 16 17 18 18 18 20 20 19 19 20 20 21 22 19 19 19 15
287 334 350 351 345 353 358 1 5 10 10 13 16 15 15 14 20 22 20 19 17 16 13 12 11 11 11 11 12 13 14 15 15 17 17 14 13 16 16 15 15 13 15
285 313 336 331 333 346 350 351 357 4 6 10 12 14 15 15 18 20 21 19 15 15 13 10 9 10 10 10 9 8 9 12 11 8 9 9 9 9 9 11 8 8 9
280 297 309 312 319 335 338 340 346 355 1 6 8 12 15 16 18 19 19 19 17 14 12 13 11 9 9 9 9 8 7 8 7 6 5 5 5 6 5 4 4 2 0
281 279 295 303 303 311 318 324 330 343 352 1 7 10 12 16 17 17 17 16 16 16 15 13 13 13 10 9 8 8 7 5 3 4 4 5 3 4 5 3 359 357 354
286 284 286 293 289 291 299 305 313 327 339 349 0 8 9 11 14 15 15 16 16 15 15 15 14 12 10 10 8 8 7 6 4 2 3 3 3 4 4 2 1 0 356
Height
1558 1554 1549 1543 1536 1529 1522 1517 1512 1507 1501 1496 1491 1486 1481 1477 1472 1467 1461 1457 1455 1453 1450 1448 1445 1441 1436 1435 1434 1437 1437 1443 1444 1447 1448 1451 1456 1466 1471 1476 1482 1487 1492
1557 1554 1548 1543 1536 1529 1522 1518 1513 1507 1502 1497 1491 1486 1482 1477 1472 1466 1461 1457 1454 1451 1450 1446 1441 1437 1433 1431 1431 1431 1432 1436 1441 1440 1442 1446 1453 1461 1465 1469 1472 1478 1484
1557 1553 1548 1543 1536 1529 1523 1518 1514 1509 1503 1498 1492 1487 1482 1477 1472 1466 1461 1457 1454 1451 1447 1444 1441 1437 1433 1429 1426 1426 1428 1431 1433 1434 1440 1444 1448 1454 1457 1460 1465 1471 1477
1557 1552 1548 1542 1537 1530 1524 1520 1515 1509 1504 1498 1493 1488 1483 1478 1472 1467 1462 1458 1454 1451 1447 1444 1440 1437 1433 1427 1424 1424 1426 1426 1428 1428 1433 1437 1441 1446 1450 1455 1457 1462 1468
1555 1552 1547 1543 1538 1531 1526 1521 1516 1510 1505 1499 1494 1489 1484 1479 1474 1469 1463 1459 1455 1451 1447 1444 1441 1438 1434 1430 1425 1423 1424 1424 1423 1422 1427 1431 1435 1438 1444 1453 1448 1453 1460
1555 1551 1547 1543 1537 1532 1527 1522 1516 1510 1505 1500 1495 1490 1485 1480 1475 1471 1465 1460 1456 1452 1448 1444 1441 1436 1431 1429 1425 1421 1421 1419 1418 1422 1422 1428 1430 1434 1439 1442 1444 1448 1454
1554 1550 1547 1542 1538 1532 1528 1523 1517 1512 1507 1502 1497 1492 1487 1482 1477 1472 1467 1463 1458 1454 1449 1445 1441 1437 1432 1427 1423 1419 1417 1417 1417 1417 1420 1424 1427 1432 1434 1437 1439 1446 1444
1553 1550 1546 1542 1537 1533 1528 1524 1519 1515 1509 1503 1499 1494 1490 1485 1480 1475 1471 1466 1461 1456 1452 1448 1443 1438 1432 1428 1424 1419 1416 1414 1416 1415 1417 1418 1420 1424 1427 1430 1435 1441 1440
1552 1549 1545 1542 1537 1532 1529 1525 1521 1517 1512 1506 1502 1497 1492 1487 1483 1478 1473 1468 1463 1458 1454 1450 1446 1441 1436 1430 1426 1421 1418 1416 1414 1412 1412 1412 1416 1419 1422 1426 1429 1434 1437
1552 1549 1546 1541 1537 1533 1530 1526 1523 1519 1515 1510 1505 1500 1495 1490 1485 1480 1475 1470 1465 1461 1456 1452 1448 1444 1439 1434 1428 1423 1419 1415 1412 1409 1404 1412 1415 1414 1417 1420 1425 1428 1434
1553 1549 1545 1540 1537 1534 1530 1527 1523 1520 1516 1511 1507 1503 1497 1493 1489 1484 1479 1474 1468 1463 1459 1454 1450 1446 1441 1436 1431 1425 1421 1418 1413 1409 1411 1409 1408 1411 1413 1417 1417 1424 1426
1552 1549 1545 1541 1538 1534 1531 1528 1524 1520 1516 1512 1508 1504 1499 1495 1491 1487 1482 1477 1473 1468 1462 1458 1453 1449 1444 1438 1433 1429 1426 1421 1416 1412 1411 1410 1408 1408 1410 1413 1415 1417 1417
1552 1549 1545 1542 1539 1536 1532 1528 1524 1521 1516 1513 1509 1504 1500 1496 1492 1488 1485 1480 1475 1470 1466 1462 1458 1452 1447 1442 1438 1435 1430 1423 1419 1417 1416 1414 1411 1409 1407 1407 1410 1412 1415
1552 1549 1546 1544 1541 1537 1534 1530 1526 1522 1518 1514 1510 1506 1502 1498 1493 1488 1485 1482 1479 1474 1469 1465 1459 1455 1450 1446 1441 1436 1431 1428 1426 1423 1419 1418 1414 1411 1409 1405 1406 1406 1410
1552 1549 1547 1544 1542 1539 1536 1532 1529 1525 1521 1516 1512 1508 1504 1499 1496 1493 1488 1484 1480 1477 1472 1467 1461 1456 1451 1447 1443 1440 1436 1434 1429 1426 1424 1422 1419 1415 1411 1408 1406 1404 1407
1552 1550 1547 1545 1542 1539 1536 1533 1531 1527 1523 1519 1516 1511 1507 1504 1499 1495 1491 1488 1484 1480 1475 1469 1464 1461 1456 1452 1448 1444 1441 1437 1433 1430 1428 1425 1421 1417 1415 1413 1412 1411 1409
1552 1549 1547 1545 1542 1539 1536 1533 1530 1527 1524 1521 1517 1513 1509 1505 1502 1497 1493 1489 1485 1482 1476 1472 1469 1466 1462 1458 1454 1449 1445 1442 1439 1435 1431 1427 1425 1422 1419 1417 1415 1413 1411
1551 1549 1547 1545 1542 1539 1536 1533 1530 1527 1524 1521 1518 1515 1511 1507 1504 1499 1495 1492 1487 1482 1479 1476 1473 1470 1467 1463 1460 1455 1451 1447 1443 1440 1436 1432 1429 1426 1423 1420 1418 1416 1415
1550 1548 1547 1545 1542 1539 1537 1534 1531 1528 1526 1522 1519 1516 1512 1510 1506 1502 1497 1492 1488 1485 1482 1479 1476 1473 1470 1467 1464 1460 1456 1452 1448 1443 1439 1437 1433 1431 1428 1425 1423 1421 1418
1549 1548 1546 1545 1543 1541 1538 1535 1531 1529 1526 1524 1521 1516 1513 1511 1507 1503 1499 1495 1491 1488 1485 1482 1479 1475 1472 1469 1466 1462 1459 1455 1451 1448 1444 1440 1437 1435 1432 1429 1427 1424 1421
1548 1547 1546 1544 1543 1541 1538 1535 1533 1530 1527 1524 1522 1519 1515 1511 1508 1505 1502 1498 1495 1492 1488 1485 1481 1478 1474 1470 1467 1464 1460 1457 1453 1450 1447 1444 1440 1437 1434 1432 1429 1426 1423
1546 1545 1544 1543 1543 1540 1538 1536 1533 1531 1528 1525 1523 1520 1518 1514 1510 1507 1504 1501 1498 1495 1491 1488 1484 1480 1476 1472 1468 1465 1461 1458 1455 1451 1448 1445 1442 1438 1435 1432 1429 1428 1424
1545 1544 1543 1542 1541 1539 1537 1535 1533 1531 1529 1526 1523 1521 1518 1516 1512 1509 1505 1502 1500 1497 1494 1491 1487 1483 1479 1475 1471 1467 1463 1459 1455 1451 1448 1445 1442 1438 1435 1432 1431 1429 1426
1543 1543 1542 1540 1539 1538 1537 1535 1533 1531 1529 1526 1524 1521 1519 1516 1514 1511 1508 1505 1501 1498 1496 1492 1489 1485 1481 1478 1474 1469 1466 1462 1458 1455 1450 1446 1443 1440 1436 1433 1430 1428 1426
1540 1540 1540 1539 1538 1536 1535 1534 1532 1530 1528 1526 1524 1522 1520 1518 1515 1513 1509 1506 1503 1500 1497 1493 1490 1486 1483 1479 1476 1472 1468 1464 1460 1457 1453 1449 1445 1441 1437 1434 1432 1430 1427
1537 1537 1536 1536 1536 1535 1533 1532 1531 1529 1528 1526 1524 1522 1520 1518 1516 1513 1511 1508 1504 1501 1498 1494 1491 1488 1484 1481 1477 1473 1470 1466 1462 1458 1454 1451 1447 1443 1440 1437 1434 1430 1427